Regional Weather Roundup
Issued by NWS

Home | Current Version | Previous Version | Text Only | Print | Product List | Glossary Off
Versions: 1 2 3 4 5 6 7 8 9 10 11 12 13 14 15 16 17 18 19 20 21 22 23 24 25 26 27 28 29 30 31 32 33 34 35 36 37 38 39 40 41 42 43 44 45 46 47 48 49 50

000
ASUS45 KBOU 030810
RWRCO

WEATHER ROUNDUP FOR COLORADO
NATIONAL WEATHER SERVICE PUEBLO CO
200 AM MDT MON AUG 03 2015

NOTE: "FAIR" INDICATES FEW OR NO CLOUDS BELOW 12000 FEET WITH NO
SIGNIFICANT WEATHER AND/OR OBSTRUCTIONS TO VISIBILITY.

COZ001>005-013-030-031-030900-
...NORTHWEST COLORADO...

CITY           SKY/WX    TMP DP  RH WIND       PRES   REMARKS
CRAIG          CLOUDY    61  32  33 CALM      30.16F
HAYDEN         CLOUDY    61  52  72 SE8       30.18F
MEEKER         LGT RAIN  60  54  80 NE6       30.17F
MOUNT WERNER   NOT AVBL
STEAMBOAT SPGS FAIR      55  50  82 CALM      30.21F
WALDEN         FAIR      52  43  71 E5        30.30S
$$

COZ006>008-011-030900-
...WEST CENTRAL VALLEYS...

CITY           SKY/WX    TMP DP  RH WIND       PRES   REMARKS
GRAND JUNCTION CLOUDY    65  56  72 E9        30.06F
MONTROSE       CLOUDY    61  59  93 E7        30.15F
EAGLE          CLOUDY    61  55  82 SE5       30.24F
RIFLE          CLOUDY    61  58  90 CALM      30.15F
DELTA          NOT AVBL
NUCLA          FAIR      61  57  88 SE6       30.18S
$$

COZ017>023-064>068-030900-
...SOUTHWEST COLORADO...

CITY           SKY/WX    TMP DP  RH WIND       PRES   REMARKS
DURANGO        MOCLDY    57  55  93 CALM      30.23F
CORTEZ         CLEAR     62  56  80 SW10      30.16F
PAGOSA SPRINGS LGT RAIN  56  56 100 NE3       30.30F
TELLURIDE      CLOUDY    53  50  91 E5        30.37S
WOLF CREEK PAS NOT AVBL
$$

COZ009-010-012-014-032>034-037-058>063-030900-
...CENTRAL COLORADO...

CITY           SKY/WX    TMP DP  RH WIND       PRES   REMARKS
ASPEN          CLOUDY    54  52  93 CALM      30.27F
BUENA VISTA    CLOUDY    55  51  86 CALM      30.32F
COPPER MTN     CLOUDY    52  39  62 S22G28    30.56F
BERTHOUD PASS  FAIR      43  32  65 SE8       30.63S
COTTONWOOD PAS CLOUDY    54  46  76 W7        30.43F
GUNNISON       CLOUDY    55  52  88 N5        30.32F
KREMMLING      CLOUDY    59  43  55 E6        30.26F
LEADVILLE      CLOUDY    47  47 100 NW6       30.41F
MONARCH PASS   CLOUDY    45  41  87 S13       30.66F
SALIDA         NOT AVBL
NIWOT RIDGE    NOT AVBL
SUNLIGHT       CLOUDY    48  46  93 E6        30.48F
WILKERSON PASS CLOUDY    45  41  87 SW8       30.55F
$$

COZ069>075-030900-
...SAN LUIS VALLEY/SANGRE DE CRISTO MOUNTAINS...

CITY           SKY/WX    TMP DP  RH WIND       PRES   REMARKS
ALAMOSA        CLOUDY    55  53  93 W7        30.28F
LA VETA PASS   CLOUDY    50  37  62 SE8       30.45S
SAGUACHE       CLOUDY    55  54  94 NW3       30.33S
$$

COZ035-036-038>040-030900-
...NORTHERN COLORADO FRONT RANGE...

CITY           SKY/WX    TMP DP  RH WIND       PRES   REMARKS
DENVER INTL AP CLOUDY    66  50  56 S9        30.09F
DMNS CITY PARK NOT AVBL
AURORA         MOCLDY    65  52  63 S9        30.12S
FRONT RANGE AP NOT AVBL
ERIE MUNI ARPT FAIR      71  49  45 CALM      30.07R
BOULDER MUN AP FAIR      70  50  49 CALM      30.07R
CENTENNIAL     CLOUDY    65  51  60 S6        30.13S
BROOMFIELD     CLOUDY    70  46  43 SE3       30.11S
LOVELAND       CLOUDY    66  52  59 N6        30.07S
LONGMONT       FAIR      67  55  64 CALM      30.08R
$$

COZ041-046-047-076>085-087-088-030900-
...PIKES PEAK/PALMER DIVIDE AND SOUTHERN FOOTHILLS...

CITY           SKY/WX    TMP DP  RH WIND       PRES   REMARKS
COLO. SPRINGS  CLOUDY    65  50  58 N7        30.16F
A. F. ACADEMY  CLOUDY    58  50  74 N6        30.18F
ELLICOTT       FAIR     N/A N/A N/A SE8       30.15F
FALCON         FAIR      62  53  72 CALM      30.22F
FORT CARSON    CLOUDY    67  51  57 N9        30.13F
LIMON          MOCLDY    56  51  84 CALM      30.12F
MONUMENT HILL  NOT AVBL
TRINIDAD       CLOUDY    63  55  75 SW8       30.13F
$$

COZ042>045-048>051-090-091-030900-
...NORTHEAST COLORADO...

CITY           SKY/WX    TMP DP  RH WIND       PRES   REMARKS
GREELEY ARPT   CLOUDY    66  52  59 E5        30.05F
AKRON          CLOUDY    69  53  56 S12       30.06F
BURLINGTON     PTCLDY    66  58  75 S9        30.04F
WRAY           FAIR      70  57  64 SW8       30.01S
STERLING       FAIR      64  57  77 SW3       30.01S
HOLYOKE        FAIR      64  55  72 SW5       30.01S
FORT MORGAN    FAIR      69  47  46 CALM      30.05F
$$

COZ086-089-092>099-030900-
...SOUTHEAST COLORADO...

CITY           SKY/WX    TMP DP  RH WIND       PRES   REMARKS
PUEBLO         CLOUDY    72  56  57 N7        30.05F
LA JUNTA       MOCLDY    72  54  53 E3        30.04F
LAMAR          MOCLDY    69  61  75 CALM      29.99F
SPRINGFIELD      N/A     67  64  90 CALM      30.03F
$$




USA.gov is the U.S. government's official web portal to all federal, state and local government web resources and services.